カタログに戻る

STARLINK-11491

運用中通信VLEO
NORAD 62269·PAYLOAD·🇺🇸 United States

打ち上げ Dec 8, 2024 から Cape Canaveral Space Force Station

Loading…

次のパス (今後24時間)

TLE

最新Source: CelesTrak SupGP

元期: Sep 14, 2026, 21:13 UTC

1 62269C 24237C   26257.88451389  .00006067  00000+0  47094-4 0  2574
2 62269  43.0006 356.0203 0001739 280.8547 301.1758 15.70848013    16

AllMySatでSTARLINK-11491をリアルタイム追跡

Download on the App Store